Date String (YYYY-MM-DD hh:mm:ss) UTC,Instrument flags,absolute air pressure of the measurement (hPa),sample flow rate (lpm),inlet stack bypass flow (lpm),air temperature of the measurement (°C),ambient temperature measured by the external sensor (°C),aerosol sample conditioner tube jacket temperature (°C),OPC LED temperature (°C),internal box temperature (°C),relative humidity of the measurement (%),span deviation,mass concentration of particles derived from Lorenz-Mie calculation of OPC scattering (μg/m³),mass concentration of particles derived from Lorenz-Mie calculation of OPC scattering (μg/m³),mass concentration of particles derived from Lorenz-Mie calculation of OPC scattering (μg/m³)
DateTimeUTC,F1_M11,P_M11,Q1_M11,Q2_M11,T1_M11,T2_M11,T3_M11,T4_M11,T5_M11,U1_M11,ZSPAN_M11,X0_M11,X2_M11,X1_M11
2024-05-09 09:00:00,SystemResetWarning,0827.5,5.00,000.00,025.1,024.4,000.0,033.4,026.8,010.5,0000.0,0002.41,0000.91,0000.34
2024-05-09 09:01:00,SystemResetWarning,0827.5,5.00,000.00,025.1,024.4,000.0,033.4,026.8,010.5,0000.0,0002.27,0000.90,0000.34
2024-05-09 09:02:00,SystemResetWarning,0827.6,4.99,000.00,025.1,024.4,000.0,033.4,026.8,010.6,0000.0,0002.15,0000.86,0000.33
2024-05-09 09:03:00,SystemResetWarning,0827.6,5.01,000.00,025.1,024.4,000.0,033.4,026.8,010.6,0000.0,0001.95,0000.83,0000.33
2024-05-09 09:04:00,SystemResetWarning,0827.7,5.00,000.00,025.1,024.4,000.0,033.4,026.8,010.6,0000.0,0001.75,0000.76,0000.33
2024-05-09 09:05:00,SystemResetWarning,0827.7,5.00,000.00,025.1,024.5,000.0,033.4,026.9,010.6,0000.0,0001.85,0000.79,0000.34
2024-05-09 09:06:00,SystemResetWarning,0827.7,5.00,000.00,025.1,024.5,000.0,033.4,026.9,010.6,0000.0,0002.82,0000.79,0000.34
2024-05-09 09:07:00,SystemResetWarning,0827.7,4.99,000.00,025.1,024.4,000.0,033.4,026.8,010.6,0000.0,0003.17,0000.78,0000.34
2024-05-09 09:08:00,SystemResetWarning,0827.7,4.99,000.00,025.1,024.4,000.0,033.4,026.8,010.6,0000.0,0003.01,0000.77,0000.34
2024-05-09 09:09:00,SystemResetWarning,0827.7,5.02,000.00,025.1,024.4,000.0,033.4,026.8,010.6,0000.0,0002.78,0000.74,0000.34
2024-05-09 09:10:00,SystemResetWarning,0827.7,5.01,000.00,025.1,024.5,000.0,033.4,026.8,010.7,0000.0,0002.71,0000.73,0000.34
2024-05-09 09:11:00,SystemResetWarning,0827.8,4.99,000.00,025.1,024.5,000.0,033.4,026.8,010.7,0000.0,0002.66,0000.71,0000.33
2024-05-09 09:12:00,SystemResetWarning,0827.8,4.99,000.00,025.1,024.5,000.0,033.4,026.8,010.7,0000.0,0002.85,0000.76,0000.33
2024-05-09 09:13:00,SystemResetWarning,0827.8,5.00,000.00,025.2,024.5,000.0,033.4,026.8,010.7,0000.0,0002.90,0000.78,0000.33
2024-05-09 09:14:00,SystemResetWarning,0827.8,5.00,000.00,025.1,024.5,000.0,033.4,026.8,010.7,0000.0,0002.83,0000.73,0000.33
2024-05-09 09:15:00,SystemResetWarning,0827.8,5.00,000.00,025.1,024.5,000.0,033.4,026.8,010.8,0000.0,0004.18,0000.71,0000.32
2024-05-09 09:16:00,SystemResetWarning,0828.0,5.00,000.00,025.1,024.5,000.0,033.4,026.9,010.7,0000.0,0004.78,0000.69,0000.32
2024-05-09 09:17:00,SystemResetWarning,0827.8,5.00,000.00,025.2,024.5,000.0,033.4,026.9,010.7,0000.0,0003.84,0000.70,0000.33
2024-05-09 09:18:00,SystemResetWarning,0828.0,5.01,000.00,025.2,024.5,000.0,033.4,026.8,010.7,0000.0,0003.54,0000.69,0000.34
2024-05-09 09:19:00,SystemResetWarning,0827.8,5.00,000.00,025.2,024.5,000.0,033.4,026.8,010.7,0000.0,0003.61,0000.71,0000.34
2024-05-09 09:20:00,SystemResetWarning,0827.9,5.00,000.00,025.2,024.5,000.0,033.4,026.9,010.7,0000.0,0003.75,0000.75,0000.34
2024-05-09 09:21:00,SystemResetWarning,0828.0,5.00,000.00,025.2,024.5,000.0,033.4,026.8,010.8,0000.0,0003.78,0000.76,0000.35
2024-05-09 09:22:00,SystemResetWarning,0828.0,4.99,000.00,025.2,024.5,000.0,033.4,026.8,010.8,0000.0,0003.88,0000.79,0000.36
2024-05-09 09:23:00,SystemResetWarning,0828.0,5.00,000.00,025.2,024.5,000.0,033.4,026.8,010.9,0000.0,0003.87,0000.79,0000.37
2024-05-09 09:24:00,SystemResetWarning,0828.1,5.00,000.00,025.2,024.5,000.0,033.4,026.9,010.9,0000.0,0003.68,0000.75,0000.37
2024-05-09 09:25:00,SystemResetWarning,0828.1,4.99,000.00,025.2,024.5,000.0,033.4,026.9,011.0,0000.0,0003.92,0000.83,0000.38
2024-05-09 09:26:00,SystemResetWarning,0828.1,5.00,000.00,025.2,024.5,000.0,033.4,026.9,011.0,0000.0,0003.14,0000.87,0000.38
2024-05-09 09:27:00,SystemResetWarning,0828.1,5.00,000.00,025.2,024.5,000.0,033.5,026.9,010.9,0000.0,0002.41,0000.90,0000.38
2024-05-09 09:28:00,SystemResetWarning,0828.1,5.00,000.00,025.2,024.5,000.0,033.5,026.9,010.9,0000.0,0002.52,0000.94,0000.39
2024-05-09 09:29:00,SystemResetWarning,0828.1,5.00,000.00,025.2,024.5,000.0,033.5,026.9,010.8,0000.0,0002.64,0000.96,0000.38
2024-05-09 09:30:00,SystemResetWarning,0828.0,5.01,000.00,025.2,024.5,000.0,033.5,026.9,010.8,0000.0,0002.80,0000.99,0000.38
2024-05-09 09:31:00,SystemResetWarning,0828.1,5.00,000.00,025.2,024.5,000.0,033.5,026.9,010.9,0000.0,0002.96,0000.97,0000.38
2024-05-09 09:32:00,SystemResetWarning,0828.1,4.99,000.00,025.2,024.5,000.0,033.5,026.9,010.9,0000.0,0003.50,0000.98,0000.38
2024-05-09 09:33:00,SystemResetWarning,0828.1,4.99,000.00,025.2,024.5,000.0,033.5,026.9,010.9,0000.0,0003.53,0001.00,0000.39
2024-05-09 09:34:00,SystemResetWarning,0828.0,5.00,000.00,025.2,024.5,000.0,033.5,026.9,010.8,0000.0,0003.79,0001.00,0000.39
2024-05-09 09:35:00,SystemResetWarning,0828.1,5.00,000.00,025.2,024.5,000.0,033.5,026.9,010.8,0000.0,0004.38,0001.01,0000.40
2024-05-09 09:36:00,SystemResetWarning,0828.2,4.99,000.00,025.2,024.5,000.0,033.5,026.9,010.8,0000.0,0004.49,0001.05,0000.41
2024-05-09 09:37:00,SystemResetWarning,0828.1,5.00,000.00,025.2,024.5,000.0,033.5,026.9,010.8,0000.0,0004.76,0001.09,0000.43
2024-05-09 09:38:00,SystemResetWarning,0828.2,5.00,000.00,025.2,024.5,000.0,033.5,026.9,010.8,0000.0,0005.50,0001.21,0000.45
2024-05-09 09:39:00,SystemResetWarning,0828.2,5.01,000.00,025.2,024.5,000.0,033.5,026.9,010.8,0000.0,0005.61,0001.25,0000.46
2024-05-09 09:40:00,SystemResetWarning,0828.2,5.00,000.00,025.2,024.5,000.0,033.5,026.9,010.8,0000.0,0005.67,0001.28,0000.47
2024-05-09 09:41:00,SystemResetWarning,0828.3,5.00,000.00,025.2,024.5,000.0,033.5,026.9,010.7,0000.0,0005.92,0001.27,0000.47
2024-05-09 09:42:00,SystemResetWarning,0828.3,5.00,000.00,025.2,024.5,000.0,033.5,026.9,010.8,0000.0,0006.84,0001.26,0000.47
2024-05-09 09:43:00,SystemResetWarning,0828.3,5.00,000.00,025.2,024.5,000.0,033.5,026.9,011.1,0000.0,0006.27,0001.22,0000.47
2024-05-09 09:44:00,SystemResetWarning,0828.3,5.00,000.00,025.2,024.5,000.0,033.5,026.9,011.0,0000.0,0007.01,0001.21,0000.47
2024-05-09 09:45:00,SystemResetWarning,0828.4,5.00,000.00,025.2,024.5,000.0,033.5,026.9,011.1,0000.0,0006.72,0001.19,0000.47
2024-05-09 09:46:00,SystemResetWarning,0828.3,5.00,000.00,025.2,024.5,000.0,033.5,026.9,010.9,0000.0,0007.31,0001.15,0000.47
2024-05-09 09:47:00,SystemResetWarning,0828.3,5.00,000.00,025.2,024.5,000.0,033.5,026.9,010.6,0000.0,0007.22,0001.06,0000.45
2024-05-09 09:48:00,SystemResetWarning,0828.4,5.00,000.00,025.2,024.5,000.0,033.5,026.9,011.0,0000.0,0006.93,0000.98,0000.44
2024-05-09 09:49:00,SystemResetWarning,0828.4,5.00,000.00,025.2,024.5,000.0,033.5,026.9,010.9,0000.0,0006.20,0000.89,0000.42
2024-05-09 09:50:00,SystemResetWarning,0828.4,5.00,000.00,025.2,024.5,000.0,033.5,026.9,010.8,0000.0,0005.81,0000.80,0000.40
2024-05-09 09:51:00,SystemResetWarning,0828.4,5.00,000.00,025.2,024.5,000.0,033.5,026.9,011.0,0000.0,0005.62,0000.74,0000.39
2024-05-09 09:52:00,SystemResetWarning,0828.4,5.00,000.00,025.2,024.5,000.0,033.5,026.9,011.3,0000.0,0005.16,0000.70,0000.38
2024-05-09 09:53:00,SystemResetWarning,0828.4,5.00,000.00,025.2,024.5,000.0,033.5,026.9,011.3,0000.0,0004.69,0000.69,0000.38
2024-05-09 09:54:00,SystemResetWarning,0828.4,5.00,000.00,025.2,024.5,000.0,033.5,026.9,011.2,0000.0,0004.63,0000.69,0000.37
2024-05-09 09:55:00,SystemResetWarning,0828.4,5.01,000.00,025.2,024.5,000.0,033.5,026.9,011.0,0000.0,0003.93,0000.66,0000.37
2024-05-09 09:56:00,SystemResetWarning,0828.4,5.01,000.00,025.2,024.5,000.0,033.5,026.9,010.8,0000.0,0003.80,0000.65,0000.37
2024-05-09 09:57:00,SystemResetWarning,0828.4,5.01,000.00,025.2,024.5,000.0,033.5,026.9,010.8,0000.0,0002.75,0000.65,0000.38
2024-05-09 09:58:00,SystemResetWarning,0828.4,5.01,000.00,025.2,024.5,000.0,033.5,026.9,011.0,0000.0,0003.00,0000.67,0000.38
2024-05-09 09:59:00,SystemResetWarning,0828.4,4.99,000.00,025.2,024.5,000.0,033.5,026.9,010.9,0000.0,0002.87,0000.71,0000.38
